User: anonymous   Login
Location: Unspecified
(0.0000°N, 0.0000°E)
Time: 10:15:51
(UTC+00:00)
Language:

Transit 2A Rocket - Orbit

View from above orbital plane
View from above orbital plane
View from above satellite
View from above satellite

Ground track
Ground track

The orbit data is extracted from the following two-line orbital elements,

1 00047U 60007C   15024.48713258  .00000598  00000-0  15680-3 0  4130
2 00047 066.6674 023.5658 0236072 303.9708 053.9159 14.41454277850977
Epoch (UTC): 24 January 2015 11:41:28
Eccentricity: 0.0236072
inclination: 66.6674°
perigee height: 585 km
apogee height: 922 km
right ascension of ascending node: 23.5658°
argument of perigee: 303.9708°
revolutions per day: 14.41454277
mean anomaly at epoch: 53.9159°
orbit number at epoch: 85097

The dashed part of the orbit path shows where the satellite is in the earth's shadow,  

DLR